Rbgn^[z[y[W
メイン
   新天体発見情報
     Comet P/2016 J1-A = 2020 Y6-A (PANSTARRS)
投稿するにはまず登録を

スレッド表示 | 新しいものから 前のトピック | 次のトピック | 下へ
投稿者 スレッド
佐藤裕久
投稿日時: 2024-3-25 21:27
モデレータ
登録日: 2005-6-12
居住地: 日本
投稿: 2676
オンライン
Comet P/2016 J1-A = 2020 Y6-A (PANSTARRS)

Henry H. Hsieh (謝宏立: 惑星科学研究所と中央研究院天文及天文物理研究所:ASIAA,台湾)と
Marco Micheli (欧州宇宙機関地球近傍天体調整センター: ESA, NEOCC)は、2020年12月24日、
2021年と2022年、ハワイMauna Keaにある8.1-m Gemini North望遠鏡で得たr'-バンド露出から
P/2016 J1-Aを検出した。

検出位置は次のとおり、

     2020 UT             R.A. (2000) Decl.       Mag.   Observer
     Dec. 24.52035   10 45 38.52   - 6 28 44.7   25.2   Hsieh
          24.52422   10 45 38.58   - 6 28 45.8   25.0     "

     2021 UT             R.A. (2000) Decl.       Mag.   Observer
     Feb. 17.42188   10 31 43.48   - 6 10 20.5   23.7   Hsieh
          17.42961   10 31 43.14   - 6 10 17.8   24.0     "
     May  17.27640   10 14 53.61   + 3 32 40.5   24.5     "
          17.28412   10 14 53.92   + 3 32 41.3   24.4     "

     2022 UT             R.A. (2000) Decl.       Mag.   Observer
     Mar. 13.60427   18 22 38.17   -12 01 29.7   23.3   Hsieh
          13.60581   18 22 38.31   -12 01 29.1   23.1     "
     June 19.36086   19 05 21.22   + 0 17 22.9   21.8     "
          19.37324   19 05 20.71   + 0 17 25.2   21.7     "

2022年、Hsieh (謝宏立)の報告を受けて、中野主一氏(中央局)は、MPCの"isolated tracklet file"
に、2004年Catalinaスカイサーベイで観測されたこの彗星に、次のような疑わしいものをがあるこ
とを見つけた。

     2004 UT             R.A. (2000) Decl.       Mag.
     June 20.14644   10 21 58.14   + 4 08 19.4   17.7
          20.15015   10 21 58.47   + 4 08 17.7   17.8
          20.15385   10 21 58.66   + 4 08 17.8   17.6
          20.15756   10 21 58.94   + 4 08 17.0   17.5

S. Deen(Simi Valley, カリフォルニア州)は 2004年4月22日からす光度21.0等付近まで、CSS観測
では彗星の画像を見つけられなかった。6月に輝度が急上昇したことを示唆した。
彼はまた、Canada-France-Hawaii望遠鏡の2002年12月6日からの露出では、r光度24.0等までの彗星
を見つけることができなかった。
Deenはさらに、この彗星について公開されているデータからこの彗星をさらに多数発見したと報告
した。
2010年と2011年もハワイのHaleakalaにあるPan-STARRS1 1.8-m反射望遠鏡で得られた観測は次の
とおり、

     2010 UT             R.A. (2000) Decl.       Mag.
     Apr.  3.44163   12 14 43.95   - 6 41 15.6   21.3
           3.44992   12 14 43.64   - 6 41 10.5   21.3
          12.42586   12 09 12.13   - 5 07 15.3
          12.43503   12 09 11.81   - 5 07 09.8
          17.39984   12 06 33.96   - 4 16 47.9
          17.40903   12 06 33.65   - 4 16 42.0

     2011 UT             R.A. (2000) Decl.
     Aug. 18.37134   21 11 04.19   + 3 30 24.1
          18.38363   21 11 03.68   + 3 30 18.9
          18.39720   21 11 03.09   + 3 30 12.7
          19.35574   21 10 24.00   + 3 23 14.2
          19.36792   21 10 23.48   + 3 23 08.7
          19.37952   21 10 22.97   + 3 23 03.6

MPCの連結軌道要素、位置推算表は次のとおり、

Orbital elements:
    P/2016 J1-A (PANSTARRS)                                                     
Epoch 2024 Mar. 31.0 TT = JDT 2460400.5                                         
T 2022 Feb. 22.90450 TT                                 Rudenko                 
q   2.4619749            (2000.0)            P               Q                  
n   0.17357226     Peri.   47.87204     -0.38773652     +0.91796064             
a   3.1828475      Node   199.79786     -0.90173334     -0.39657439             
e   0.2264867      Incl.   14.31021     -0.19114755     +0.00877586             
P   5.68                                                                        
From 118 observations 2016 Mar. 4-2022 June 19, mean residual 0".3.             
                                                                                
Ephemeris:
Date    TT    R. A. (2000) Decl.     Delta      r    Elong.  Phase   m1
2024 02 10    01 06 13.5 +04 33 43   4.1312  3.6821    56.6    12.9  25.2
...
2024 02 25    01 20 49.2 +05 43 25   4.3302  3.7020    45.3    11.0  25.4
...
2024 03 04    01 29 05.6 +06 22 46   4.4237  3.7123    39.5     9.8  25.4
...
2024 03 10    01 35 29.2 +06 52 53   4.4876  3.7199    35.2     8.8  25.5
2024 03 11    01 36 34.0 +06 57 56   4.4977  3.7211    34.4     8.7  25.5
2024 03 12    01 37 39.0 +07 02 59   4.5076  3.7223    33.7     8.5  25.5
...
2024 03 18    01 44 13.4 +07 33 23   4.5637  3.7297    29.5     7.5  25.5
...
2024 03 26    01 53 09.7 +08 13 48   4.6292  3.7393    23.9     6.2  25.6
...
2024 04 10    02 10 20.3 +09 27 57   4.7220  3.7566    13.8     3.6  25.6


中野主一氏(中央局)の連結軌道要素次のとおり、
from 135 observations spanning 2004-2022 (mean residual 0".4), non-gravitational 
parameters A1 = -1.24 ± 0.13 and A2 = -0.0816 ± 0.0039. 
2010年4月の観測結果は、うまくフィットしていない。

                    Epoch = 2005 Mar. 11.0 TT
     T = 2005 Mar. 15.86557 TT        Peri. =  45.59805
     e = 0.2359634                    Node  = 200.37541 2000.0
     q = 2.4153410 AU                 Incl. =  14.35626
       a =  3.1612896 AU   n = 0.17535076   P =   5.62 years

                    Epoch = 2010 Nov. 20.0 TT
     T = 2010 Nov.  1.08713 TT        Peri. =  45.87088
     e = 0.2348393                    Node  = 200.33184 2000.0
     q = 2.4195771 AU                 Incl. =  14.35335
       a =  3.1621815 AU   n = 0.17527658   P =   5.62 years

                    Epoch = 2016 June 21.0 TT
     T = 2016 June 24.21905 TT        Peri. =  46.58721
     e = 0.2282575                    Node  = 199.85614 2000.0
     q = 2.4479989 AU                 Incl. =  14.33013
       a =  3.1720411 AU   n = 0.17446000   P =   5.65 years

                    Epoch = 2022 Mar.  2.0 TT
     T = 2022 Feb. 20.66426 TT        Peri. =  46.98806
     e = 0.2277366                    Node  = 199.81128 2000.0
     q = 2.4496763 AU                 Incl. =  14.32870
       a =  3.1720735 AU   n = 0.17445733   P =   5.65 years

                    Epoch = 2027 Nov. 11.0 TT
     T = 2027 Nov. 14.76910 TT        Peri. =  50.40485
     e = 0.2209317                    Node  = 198.73356 2000.0
     q = 2.4838098 AU                 Incl. =  14.19743
       a =  3.1881796 AU   n = 0.17313700   P =   5.69 years

                    Epoch = 2033 July 22.0 TT
     T = 2033 July 29.27836 TT        Peri. =  50.89357
     e = 0.2211751                    Node  = 198.68620 2000.0
     q = 2.4824343 AU                 Incl. =  14.19692
       a =  3.1874099 AU   n = 0.17319972   P =   5.69 years

NK 3987の中野主一氏の予報に対し、Delta(T)は、-0.05 dayであった。
MPEC 2018-D91のG. V. Williamsの予報に対する修正値は、Delta T = -0.03 dayであった。
彗星年表2021,2022の佐藤裕久の参考軌道に対する修正値は、Delta(T) = -0.03 dayであった。

(MPEC 2024-E142、CBET 5367、oaa-comet :6469)

スレッド表示 | 新しいものから 前のトピック | 次のトピック | トップ

投稿するにはまず登録を
 
© 1999 Tsutomu Seki.